Weather History for Newport News, VA

Change the Weather History Date:

Thursday, February 27, 2014

  Actual Average Record
Temperature  
Mean Temperature 42 °F -  
Max Temperature 53 °F 52 °F 78 °F (1961)
Min Temperature 30 °F 32 °F 16 °F (1970)
Degree Days  
Heating Degree Days 24    
Moisture  
Dew Point 16 °F    
Average Humidity 43    
Maximum Humidity 76    
Minimum Humidity 14    
Precipitation  
Precipitation 0.00 in - - ()
Sea Level Pressure  
Sea Level Pressure 29.83 in    
Wind  
Wind Speed 7 mph (WNW)    
Max Wind Speed 21 mph    
Max Gust Speed 30 mph    
Visibility 10 miles    
Events      
Averages and records for this station are not official NWS values.
T = Trace of Precipitation, MM = Missing Value Source: NWS Daily Summary

Daily Weather History Graph

Daily Weather History Graph

Search for Another Location

Airport:

Trip Planner

Search our weather history database for the weather conditions in past years. The results will help you decide how hot, cold, wet, or windy it might be!

Date:

Astronomy

Feb. 27, 2014 Rise Set
Actual Time 6:39 AM EST 5:58 PM EST
Civil Twilight 6:13 AM EST 6:24 PM EST
Nautical Twilight 5:43 AM EST 6:54 PM EST
Astronomical Twilight 5:13 AM EST 7:24 PM EST
Moon 5:08 AM EST (2/27) 4:22 PM EST (2/27)
Length of Visible Light 12h 10m
Length of Day
11h 18m
Waning Crescent, 4% of the Moon is Illuminated
Feb 27
Waning Crescent
Mar 1
New
Mar 8
First Quarter
Mar 16
Full
Mar 23
Last Quarter

Hourly Weather History & Observations

Time (EST) Temp. Windchill Dew Point Humidity Pressure Visibility Wind Dir Wind Speed Gust Speed Precip Events Conditions
12:54 AM 32.0 °F - 23.0 °F 69% 29.87 in 10.0 mi Calm Calm - N/A   Overcast
1:54 AM 34.0 °F 29.8 °F 23.0 °F 64% 29.86 in 10.0 mi NNE 4.6 mph - N/A   Overcast
2:54 AM 34.0 °F - 23.0 °F 64% 29.84 in 10.0 mi Calm Calm - N/A   Overcast
3:54 AM 34.0 °F - 24.1 °F 67% 29.82 in 10.0 mi Calm Calm - N/A   Overcast
4:54 AM 32.0 °F - 24.1 °F 73% 29.81 in 10.0 mi Calm Calm - N/A   Mostly Cloudy
5:54 AM 32.0 °F 27.5 °F 24.1 °F 73% 29.80 in 10.0 mi SSE 4.6 mph - N/A   Mostly Cloudy
6:54 AM 30.9 °F - 24.1 °F 76% 29.81 in 10.0 mi Calm Calm - N/A   Mostly Cloudy
7:54 AM 36.0 °F 28.0 °F 26.1 °F 67% 29.82 in 10.0 mi SW 11.5 mph - N/A   Mostly Cloudy
8:54 AM 39.0 °F 31.0 °F 27.0 °F 62% 29.81 in 10.0 mi WSW 13.8 mph - N/A   Clear
9:54 AM 41.0 °F 33.1 °F 18.0 °F 40% 29.80 in 10.0 mi WSW 15.0 mph - N/A   Clear
10:54 AM 44.1 °F 36.8 °F 12.9 °F 28% 29.77 in 10.0 mi WSW 16.1 mph 25.3 mph N/A   Clear
11:54 AM 46.9 °F - 12.0 °F 24% 29.74 in 10.0 mi WSW 20.7 mph 25.3 mph N/A   Clear
12:54 PM 50.0 °F - 12.0 °F 22% 29.71 in 10.0 mi WSW 20.7 mph 29.9 mph N/A   Clear
1:54 PM 51.1 °F - 10.0 °F 19% 29.70 in 10.0 mi West 18.4 mph 27.6 mph N/A   Clear
2:54 PM 53.1 °F - 9.0 °F 17% 29.70 in 10.0 mi West 18.4 mph 26.5 mph N/A   Clear
3:54 PM 53.1 °F - 8.1 °F 16% 29.72 in 10.0 mi NW 12.7 mph 24.2 mph N/A   Clear
4:54 PM 52.0 °F - 3.0 °F 14% 29.75 in 10.0 mi WNW 13.8 mph 26.5 mph N/A   Clear
5:54 PM 48.9 °F - 6.1 °F 18% 29.79 in 10.0 mi NW 11.5 mph - N/A   Clear
6:54 PM 46.9 °F - 8.1 °F 21% 29.84 in 10.0 mi NW 4.6 mph - N/A   Clear
7:54 PM 36.0 °F 32.1 °F 19.0 °F 50% 29.88 in 10.0 mi East 4.6 mph - N/A   Clear
8:54 PM 39.0 °F 32.3 °F 18.0 °F 43% 29.95 in 10.0 mi NNE 10.4 mph - N/A   Clear
9:54 PM 37.9 °F 30.9 °F 15.1 °F 39% 30.00 in 10.0 mi NNE 10.4 mph 18.4 mph N/A   Clear
10:54 PM 36.0 °F 28.0 °F 10.0 °F 34% 30.05 in 10.0 mi NNE 11.5 mph 16.1 mph N/A   Clear
11:54 PM 34.0 °F 28.0 °F 10.0 °F 37% 30.07 in 10.0 mi NNE 6.9 mph - N/A   Clear